DECAYED

OBJECT AA, 57028 (Decayed)

Orbit data source: Space-Track

You're viewing an Uncataloged Satellite

Recently launched and/or uncataloged satellites may have evolving metadata. Metadata may include but not limited to: Owner, Maufacturer, Bus, Motor, and Mission.

OBJECT AA, 57028 was a Chinese satellite in LEO that was launched on Thu, 15 Jun 2023 UTC via a CHANG ZHENG 2D launch vehicle from the Taiyaun Space Center, China (TSC). Unknown objects in Earth's orbit typically refer to objects detected orbiting the Earth but have not yet been identified or cataloged. These objects could be anything from previously untracked satellites, spent rocket stages, debris from satellite collisions, or even natural meteoroids temporarily captured by Earth's gravity. This object's orbit decayed before it could be identified.

Not visible in the next 10 days
Identifier
57028, 2023-085AA
Orbit
Decayed
Country
Flag of CNCN / PRC
Related business
None
Manufacturer
Unknown
Mission
Decayed Commercial Imaging
Bus & Motor
Unknown
Mass
Unknown
Launch date (UTC)
2023-06-15 (3 years ago)
Launch vehicle
CHANG ZHENG 2D
Launch site
Taiyaun Space Center, China (TSC)
Object type
Unknown
Shape & HBR
Box, 0.8 m
Radar Cross Section
2.000 m², Medium (>0.1 m² and < 1m²)

Expand to show TLE details & history
Last TLE update: 9 months ago

TLE from 9 months ago
0 OBJECT AA
1 57028U 23085AA  25277.49112007  .06601694  25179-5  17946-2 0  9997
2 57028  97.4654  40.6789 0010566 271.0950  88.9132 16.28018024128829
Epoch: 2025-10-04T11:47Z
TLE epoch observation values (Epoch: 2025-10-04T11:47:12.774Z)
Latitude
-0.00003°
Longitude
-149.54664°
Altitude
200.981 km
Speed
7.786 km/s
True Right ascension
02h 42m 42s
True Declination
0° 00' 00"
Sunlit
Object was in full shadow at epoch
Visualization orbit readout
Latitude
Unknown
Longitude
Unknown
Altitude
Unknown
Speed
Unknown
Apparent Right ascension
Unknown
Apparent Declination
Unknown
Sunlit
N/A
Visualization observer readout
Local Sidereal Time
23:09:18
Azimuth
Unknown
Elevation
Unknown
Doppler factor
Unknown
Orbital elements
Apogee altitude
201.643 km
Perigee altitude
187.753 km
Semi-major axis
6,572.835 km
Eccentricity
0.00106
Inclination
97.4654°
RAAN
40.6789°
Arg. of periapsis
271.095°
True anomaly
89.03426°
Mean anomaly
88.9132°
Eccentric anomaly
88.97373°
Mean motion
4.073 °/min
Orbital period
88.39 mins
BSTAR
0.0017946
Loading maneuver chart data...
Computing Atmospheric mass density...
Loading historical data...
Loading historical data...
Loading historical data...
Loading historical data...
Loading historical data...
Loading historical data...
Loading historical data...

Documentation

Showing up to 5 results
|